ASX454 LIMJ-LIPZ

Flight info

Callsign ASX454
Flight time 0h 38m
Altitude 24000
Route GEN DCT GOLAS DCT KALIK DCT EKPAL DCT UVOKI DCT LURUT DCT BOA DCT SUKOM Q125 NIMUM Z43 OTGIG
Aircraft A320/M-SDE3FGHIRWY/LB1

Departure

Time 2026-04-16 12:10
Airport Genoa Cristoforo Colombo Airport (LIMJ)

Arrival

Time 2026-04-16 12:49
Airport Venice Marco Polo Airport (LIPZ)
Time Latitude Longitude Altitude Speed Heading
2026-04-16 11:46 44.41421 8.85034 22 ft 0 kts 15°
2026-04-16 12:02 44.41398 8.85026 24 ft 4 kts 14°
2026-04-16 12:02 44.41372 8.85018 21 ft 4 kts
2026-04-16 12:03 44.41347 8.85020 24 ft 4 kts 325°
2026-04-16 12:03 44.41340 8.85031 22 ft 0 kts 285°
2026-04-16 12:03 44.41343 8.85009 22 ft 1 kts 282°
2026-04-16 12:05 44.41344 8.85002 21 ft 3 kts 282°
2026-04-16 12:06 44.41324 8.84955 20 ft 9 kts 216°
2026-04-16 12:06 44.41249 8.84922 22 ft 13 kts 195°
2026-04-16 12:06 44.41221 8.84831 20 ft 11 kts 287°
2026-04-16 12:06 44.41246 8.84706 21 ft 17 kts 284°
2026-04-16 12:07 44.41286 8.84505 20 ft 22 kts 285°
2026-04-16 12:07 44.41324 8.84304 20 ft 21 kts 285°
2026-04-16 12:07 44.41361 8.84118 21 ft 19 kts 285°
2026-04-16 12:07 44.41395 8.83948 20 ft 17 kts 285°
2026-04-16 12:08 44.41429 8.83771 21 ft 22 kts 285°
2026-04-16 12:08 44.41474 8.83540 22 ft 26 kts 285°
2026-04-16 12:08 44.41522 8.83295 20 ft 26 kts 285°
2026-04-16 12:08 44.41571 8.83044 20 ft 27 kts 285°
2026-04-16 12:09 44.41621 8.82786 20 ft 28 kts 285°
2026-04-16 12:09 44.41660 8.82567 19 ft 16 kts 265°
2026-04-16 12:09 44.41579 8.82490 17 ft 16 kts 199°
2026-04-16 12:09 44.41520 8.82526 17 ft 11 kts 101°
2026-04-16 12:10 44.41494 8.82665 20 ft 33 kts 105°
2026-04-16 12:10 44.41361 8.83325 21 ft 104 kts 104°
2026-04-16 12:10 44.41114 8.84554 73 ft 152 kts 107°
2026-04-16 12:10 44.40835 8.85945 749 ft 148 kts 105°
2026-04-16 12:11 44.40552 8.87355 1401 ft 152 kts 105°
2026-04-16 12:11 44.40264 8.88787 2000 ft 154 kts 103°
2026-04-16 12:11 44.39833 8.90175 2481 ft 160 kts 124°
2026-04-16 12:11 44.38988 8.91223 3019 ft 166 kts 152°
2026-04-16 12:12 44.37847 8.91661 3396 ft 181 kts 180°
2026-04-16 12:12 44.36561 8.91218 3665 ft 202 kts 213°
2026-04-16 12:12 44.35471 8.89952 4210 ft 205 kts 223°
2026-04-16 12:12 44.34409 8.88609 4843 ft 209 kts 222°
2026-04-16 12:13 44.33311 8.87239 5020 ft 212 kts 221°
2026-04-16 12:13 44.32200 8.85856 5686 ft 211 kts 221°
2026-04-16 12:13 44.31111 8.84499 6416 ft 210 kts 221°
2026-04-16 12:13 44.30012 8.83128 6991 ft 214 kts 220°
2026-04-16 12:14 44.28764 8.82022 7623 ft 214 kts 200°
2026-04-16 12:14 44.27282 8.81572 7989 ft 228 kts 183°
2026-04-16 12:14 44.25620 8.81426 8284 ft 248 kts 182°
2026-04-16 12:14 44.23809 8.81271 8606 ft 273 kts 182°
2026-04-16 12:15 44.21855 8.81251 9169 ft 287 kts 170°
2026-04-16 12:15 44.19978 8.82221 9960 ft 291 kts 146°
2026-04-16 12:15 44.18551 8.84214 10641 ft 299 kts 121°
2026-04-16 12:15 44.17853 8.87025 10903 ft 320 kts 93°
2026-04-16 12:16 44.18230 8.90129 11266 ft 335 kts 65°
2026-04-16 12:16 44.19320 8.93037 11927 ft 341 kts 60°
2026-04-16 12:16 44.20460 8.95968 12706 ft 345 kts 60°
2026-04-16 12:16 44.21609 8.98925 13489 ft 349 kts 60°
2026-04-16 12:17 44.22767 9.01916 14213 ft 352 kts 60°
2026-04-16 12:17 44.23933 9.04941 14880 ft 356 kts 60°
2026-04-16 12:17 44.25107 9.08005 15540 ft 360 kts 60°
2026-04-16 12:17 44.26287 9.11091 16198 ft 363 kts 60°
2026-04-16 12:18 44.27483 9.14221 16848 ft 367 kts 60°
2026-04-16 12:18 44.28690 9.17381 17494 ft 371 kts 60°
2026-04-16 12:18 44.29907 9.20570 18123 ft 374 kts 60°
2026-04-16 12:18 44.31141 9.23795 18710 ft 378 kts 60°
2026-04-16 12:19 44.32384 9.27040 19276 ft 381 kts 60°
2026-04-16 12:19 44.33636 9.30324 19845 ft 385 kts 60°
2026-04-16 12:19 44.34896 9.33641 20420 ft 388 kts 60°
2026-04-16 12:19 44.36163 9.36991 20986 ft 391 kts 60°
2026-04-16 12:20 44.37437 9.40363 21564 ft 395 kts 60°
2026-04-16 12:20 44.38723 9.43766 22138 ft 398 kts 60°
2026-04-16 12:20 44.40023 9.47197 22686 ft 401 kts 60°
2026-04-16 12:20 44.41347 9.50694 23232 ft 404 kts 60°
2026-04-16 12:21 44.42666 9.54188 23752 ft 407 kts 60°
2026-04-16 12:21 44.43988 9.57705 24045 ft 409 kts 61°
2026-04-16 12:21 44.45086 9.61379 24131 ft 410 kts 71°
2026-04-16 12:21 44.45702 9.65287 24140 ft 412 kts 81°
2026-04-16 12:22 44.45936 9.69276 24144 ft 412 kts 83°
2026-04-16 12:22 44.46155 9.73277 24144 ft 412 kts 83°
2026-04-16 12:22 44.46380 9.77269 24144 ft 412 kts 83°
2026-04-16 12:22 44.46611 9.81261 24143 ft 411 kts 83°
2026-04-16 12:23 44.46844 9.85256 24156 ft 411 kts 83°
2026-04-16 12:23 44.47070 9.89243 24154 ft 411 kts 83°
2026-04-16 12:23 44.47284 9.93237 24156 ft 411 kts 83°
2026-04-16 12:23 44.47488 9.97234 24150 ft 411 kts 84°
2026-04-16 12:24 44.47685 10.01230 24163 ft 411 kts 84°
2026-04-16 12:24 44.47875 10.05214 24158 ft 411 kts 84°
2026-04-16 12:24 44.48067 10.09210 24166 ft 411 kts 84°
2026-04-16 12:24 44.48262 10.13207 24173 ft 411 kts 84°
2026-04-16 12:25 44.48458 10.17208 24170 ft 411 kts 84°
2026-04-16 12:25 44.48659 10.21198 24179 ft 411 kts 84°
2026-04-16 12:25 44.48863 10.25184 24172 ft 411 kts 84°
2026-04-16 12:25 44.49068 10.29174 24184 ft 411 kts 84°
2026-04-16 12:26 44.49270 10.33164 24186 ft 411 kts 84°
2026-04-16 12:26 44.49471 10.37166 24186 ft 410 kts 84°
2026-04-16 12:26 44.49669 10.41152 24186 ft 410 kts 84°
2026-04-16 12:26 44.49862 10.45135 24194 ft 410 kts 84°
2026-04-16 12:27 44.50051 10.49122 24196 ft 410 kts 84°
2026-04-16 12:27 44.50240 10.53110 24201 ft 410 kts 84°
2026-04-16 12:27 44.50431 10.57097 24205 ft 410 kts 84°
2026-04-16 12:27 44.50621 10.61083 24205 ft 410 kts 84°
2026-04-16 12:28 44.50810 10.65051 24201 ft 410 kts 84°
2026-04-16 12:28 44.50998 10.69054 24201 ft 410 kts 84°
2026-04-16 12:28 44.51181 10.73038 24207 ft 410 kts 84°
2026-04-16 12:28 44.51365 10.77017 24209 ft 410 kts 84°
2026-04-16 12:29 44.51552 10.81004 24199 ft 410 kts 84°
2026-04-16 12:29 44.51740 10.84989 24198 ft 410 kts 84°
2026-04-16 12:29 44.51929 10.88975 24197 ft 410 kts 84°
2026-04-16 12:29 44.52118 10.92966 24199 ft 410 kts 84°
2026-04-16 12:30 44.52305 10.96952 24209 ft 410 kts 84°
2026-04-16 12:30 44.52486 11.00931 24212 ft 410 kts 84°
2026-04-16 12:30 44.52665 11.04926 24195 ft 410 kts 84°
2026-04-16 12:30 44.52841 11.08911 24195 ft 410 kts 84°
2026-04-16 12:31 44.53014 11.12905 24202 ft 410 kts 84°
2026-04-16 12:31 44.53186 11.16898 24197 ft 410 kts 84°
2026-04-16 12:31 44.53358 11.20890 24198 ft 410 kts 84°
2026-04-16 12:31 44.53528 11.24880 24198 ft 410 kts 84°
2026-04-16 12:32 44.53699 11.28868 24154 ft 410 kts 84°
2026-04-16 12:32 44.53869 11.32858 24161 ft 410 kts 84°
2026-04-16 12:32 44.54038 11.36848 24161 ft 410 kts 85°
2026-04-16 12:32 44.54201 11.40839 24162 ft 410 kts 85°
2026-04-16 12:33 44.54363 11.44825 24165 ft 410 kts 85°
2026-04-16 12:33 44.54523 11.48808 24169 ft 409 kts 85°
2026-04-16 12:33 44.54680 11.52800 24161 ft 410 kts 85°
2026-04-16 12:33 44.54841 11.56791 23548 ft 413 kts 85°
2026-04-16 12:34 44.55132 11.60802 22739 ft 412 kts 76°
2026-04-16 12:34 44.56008 11.64588 22053 ft 407 kts 63°
2026-04-16 12:34 44.57457 11.67943 21559 ft 399 kts 50°
2026-04-16 12:34 44.59355 11.70714 21079 ft 392 kts 38°
2026-04-16 12:35 44.61561 11.72918 20568 ft 387 kts 33°
2026-04-16 12:35 44.63789 11.75023 20065 ft 384 kts 33°
2026-04-16 12:35 44.65992 11.77102 19559 ft 382 kts 33°
2026-04-16 12:35 44.68193 11.79179 19036 ft 379 kts 33°
2026-04-16 12:36 44.70377 11.81245 18527 ft 378 kts 33°
2026-04-16 12:36 44.72551 11.83306 17966 ft 375 kts 33°
2026-04-16 12:36 44.74701 11.85347 17565 ft 368 kts 33°
2026-04-16 12:36 44.76846 11.87389 16534 ft 379 kts 33°
2026-04-16 12:37 44.79051 11.89490 15775 ft 383 kts 33°
2026-04-16 12:37 44.81258 11.91594 15157 ft 383 kts 33°
2026-04-16 12:37 44.83459 11.93689 14582 ft 381 kts 33°
2026-04-16 12:37 44.85649 11.95774 14024 ft 379 kts 33°
2026-04-16 12:38 44.87831 11.97854 13401 ft 377 kts 33°
2026-04-16 12:38 44.89998 11.99920 12878 ft 372 kts 33°
2026-04-16 12:38 44.92084 12.01956 12738 ft 357 kts 37°
2026-04-16 12:38 44.93923 12.04210 12607 ft 343 kts 41°
2026-04-16 12:39 44.95678 12.06414 12462 ft 331 kts 40°
2026-04-16 12:39 44.97387 12.08535 12144 ft 325 kts 37°
2026-04-16 12:39 44.99295 12.10202 11751 ft 320 kts 23°
2026-04-16 12:39 45.01396 12.11120 11439 ft 313 kts
2026-04-16 12:40 45.03508 12.11313 11169 ft 297 kts 356°
2026-04-16 12:40 45.05503 12.10831 10693 ft 287 kts 342°
2026-04-16 12:40 45.07412 12.10041 10110 ft 284 kts 344°
2026-04-16 12:40 45.09315 12.09316 9506 ft 284 kts 344°
2026-04-16 12:41 45.10573 12.08837 9252 ft 282 kts 344°
2026-04-16 12:41 45.12464 12.08116 8893 ft 280 kts 344°
2026-04-16 12:41 45.14338 12.07395 8502 ft 278 kts 344°
2026-04-16 12:41 45.16231 12.06908 8109 ft 276 kts
2026-04-16 12:42 45.18117 12.07353 7717 ft 275 kts 13°
2026-04-16 12:42 45.19969 12.08018 7326 ft 273 kts 14°
2026-04-16 12:42 45.21811 12.08695 6933 ft 272 kts 14°
2026-04-16 12:42 45.23627 12.09358 6664 ft 266 kts 14°
2026-04-16 12:43 45.25366 12.09990 6529 ft 247 kts 14°
2026-04-16 12:43 45.26996 12.10581 6400 ft 236 kts 14°
2026-04-16 12:43 45.28553 12.11147 6236 ft 227 kts 14°
2026-04-16 12:43 45.30074 12.11703 5957 ft 224 kts 14°
2026-04-16 12:44 45.31585 12.12255 5524 ft 228 kts 14°
2026-04-16 12:44 45.33095 12.12995 5088 ft 231 kts 33°
2026-04-16 12:44 45.34350 12.14453 4539 ft 238 kts 42°
2026-04-16 12:44 45.35578 12.16051 4105 ft 240 kts 42°
2026-04-16 12:45 45.36826 12.17657 3545 ft 247 kts 42°
2026-04-16 12:45 45.38117 12.19305 3000 ft 248 kts 42°
2026-04-16 12:45 45.39366 12.20900 2652 ft 235 kts 42°
2026-04-16 12:45 45.40549 12.22411 2335 ft 223 kts 42°
2026-04-16 12:46 45.41672 12.23847 2041 ft 208 kts 42°
2026-04-16 12:46 45.42696 12.25157 1804 ft 188 kts 42°
2026-04-16 12:46 45.43613 12.26332 1562 ft 166 kts 43°
2026-04-16 12:46 45.44433 12.27382 1329 ft 151 kts 43°
2026-04-16 12:47 45.45178 12.28336 1135 ft 142 kts 43°
2026-04-16 12:47 45.45903 12.29266 948 ft 139 kts 43°
2026-04-16 12:47 45.46622 12.30188 772 ft 139 kts 44°
2026-04-16 12:47 45.47344 12.31114 595 ft 140 kts 45°
2026-04-16 12:48 45.48066 12.32045 415 ft 140 kts 44°
2026-04-16 12:48 45.48790 12.32974 226 ft 139 kts 45°
2026-04-16 12:48 45.49512 12.33903 48 ft 139 kts 44°
2026-04-16 12:48 45.50165 12.34745 16 ft 105 kts 41°
2026-04-16 12:49 45.50579 12.35278 12 ft 60 kts 42°
2026-04-16 12:49 45.50836 12.35598 18 ft 40 kts 40°
2026-04-16 12:49 45.51040 12.35865 15 ft 39 kts 42°
2026-04-16 12:49 45.51199 12.36053 13 ft 21 kts 16°
2026-04-16 12:50 45.51312 12.35959 13 ft 20 kts 309°
2026-04-16 12:50 45.51272 12.35809 12 ft 19 kts 221°
2026-04-16 12:50 45.51167 12.35680 14 ft 20 kts 222°
2026-04-16 12:50 45.51058 12.35539 15 ft 23 kts 221°
2026-04-16 12:51 45.50975 12.35339 20 ft 25 kts 256°
2026-04-16 12:51 45.50893 12.35129 20 ft 25 kts 222°
2026-04-16 12:51 45.50757 12.34949 16 ft 28 kts 222°
2026-04-16 12:51 45.50624 12.34772 15 ft 20 kts 232°
2026-04-16 12:52 45.50600 12.34583 16 ft 19 kts 268°
2026-04-16 12:52 45.50589 12.34413 16 ft 15 kts 252°
2026-04-16 12:52 45.50553 12.34341 15 ft 4 kts 257°
2026-04-16 12:52 45.50551 12.34312 16 ft 2 kts 269°
2026-04-16 12:53 45.50550 12.34292 16 ft 2 kts 269°
2026-04-16 12:53 45.50550 12.34277 16 ft 2 kts 267°
2026-04-16 12:53 45.50549 12.34250 16 ft 2 kts 267°
2026-04-16 12:53 45.50548 12.34232 17 ft 2 kts 267°
2026-04-16 12:54 45.50548 12.34220 16 ft 1 kts 267°
2026-04-16 12:54 45.50548 12.34215 16 ft 0 kts 267°
2026-04-16 12:54 45.50548 12.34213 16 ft 0 kts 267°